sat.trackr.live / text

‹ back to catalog

COSMOS 2565

NORAD 54381 · 2022-163A

PAYLOAD ACTIVE UNKNOWN

§ Identity

Operator
Country
CIS
Launch date
2022-11-30
Launch site
PLMSC
Launch vehicle
Mass (kg)
RCS (m²)

External: N2YO · Heavens-Above · Gunter

§ Orbital elements

Epoch: 2026-05-25T05:41:01.184064Z

Period
103.10 min
Inclination
67.1467°
Eccentricity
0.0006568
Mean motion
13.96676423 rev/d
Perigee alt
900.5 km
Apogee alt
910.1 km
Semi-major
7,283.5 km
B*
2.8888e-5
RAAN
163.0358°
Arg perigee
275.1670°
Mean anomaly
84.8665°
Rev number
17,756

§ Raw data

COSMOS 25651 54381U 22163A   26145.23681926 -.00000035  00000+0  28888-4 0  99962 54381  67.1467 163.0358 0006568 275.1670  84.8665 13.96676423177563

JSON: /api/v1/satellites/54381 · /tle

For live sub-satellite position, see the globe view (requires WebGL).

§ Visibility from observer

Set your observer location to see the next 7 days of passes ≥ 10°. The values pass through the URL so the page stays shareable.

No JS? Fill the form by hand. The geolocation button needs JavaScript.